Location: Fontevrault
(47.1823°N, 0.0493°E)
Time: 04:22:59
(UTC+00:00)

Cosmos 1459 Rocket - Pass Details

Date: 25 October 2021
Orbit: 936 x 1000 km, 83.0° (Epoch: 01 December)

Event Time Altitude Azimuth Distance (km) Brightness Sun altitude
Rises 20:24:08 0° 214° (SW) 3,655 7.1 -35.8°
Reaches altitude 10° 20:26:53 10° 223° (SW) 2,702 6.5 -36.2°
Maximum altitude 20:32:29 35° 288° (WNW) 1,496 5.3 -37.1°
Drops below altitude 10° 20:38:03 10° 354° (N) 2,681 6.6 -37.9°
Sets 20:40:47 0° 3° (N) 3,623 7.2 -38.4°
